Location: Alsip
(41.6689°N, 87.7387°W)
Time: 15:20:29
(UTC+00:00)

Cosmos 1707 Rocket - Pass Details

Date: 14 July 2020
Orbit: 604 x 632 km, 82.5° (Epoch: 13 August)

Event Time Altitude Azimuth Distance (km) Brightness Sun altitude
Rises 05:54:48 0° 352° (N) 2,923 8.3 -26.7°
Reaches altitude 10° 05:57:03 10° 353° (N) 2,007 7.2 -26.7°
Enters shadow 06:00:48 63° 1° (N) 699 3.9 -26.7°
